#timestamp,LO_Frequency,Hit 
1498852815.5,286047001.0,N
1498852835.4,286046998.5,N
1498852855.2,286046998.4,N
1498852875.0,286046999.5,N
1498852875.9,286046999.5,N
1498852895.8,286046999.4,N
1498852915.6,286046998.3,N
1498852935.4,286046999.2,N
1498852955.3,286046999.4,N
1498852975.1,286046999.3,N
1498852976.0,286046999.3,N
1498852995.8,286046998.1,N
1498853015.7,286046998.6,N
1498853035.5,286046999.5,N
1498853055.3,286046999.0,N
1498853075.2,286047000.8,N
1498853095.9,286046998.2,N
1498853115.7,286046998.1,N
1498853135.6,286047000.7,N
1498853155.4,286047000.3,N
1498853175.2,286047000.0,N
1498853195.1,286047000.4,N
1498853196.0,286047000.4,N
1498853215.8,286047000.9,N
1498853235.6,286047000.6,N
1498853255.5,286047002.5,N
1498853275.3,286046999.9,N
1498853295.1,286047001.2,N
1498853315.9,286047000.8,N
1498853335.7,286047000.6,N
1498853355.5,286046999.7,N
1498853375.4,286047000.4,N
1498853395.2,286047000.7,N
1498853415.0,286047002.5,N
1498853415.9,286047002.5,N
1498853435.8,286047002.6,N
1498853455.6,286047002.8,N
1498853475.4,286047000.9,N
1498853495.3,286047000.5,N
1498853515.1,286047001.8,N
1498853516.0,286047001.8,N
1498853535.8,286047001.9,N
1498853555.7,286047002.8,N
1498853575.5,286046999.7,N
1498853595.3,286046999.7,N
1498853615.2,286046999.7,N
1498853635.9,286047000.9,N
1498853655.7,286047000.5,N
1498853675.6,286046998.1,N
1498853695.4,286046998.2,N
1498853715.2,286047001.0,N
1498853735.1,286047001.2,N
1498853736.0,286047001.2,N
1498853755.8,286046998.6,N
1498853775.6,286046998.1,N
1498853795.5,286046999.0,N
1498853815.3,286046998.4,N
1498853835.1,286047001.1,N
1498853855.9,286046998.6,N
1498853875.7,286046998.6,N
1498853895.5,286047000.4,N
1498853915.4,286047000.9,N
1498853935.2,286047002.5,N
1498853955.0,286047000.1,N
1498853955.9,286047000.1,N
1498853975.8,286047000.1,N
1498853995.6,286047000.2,N
1498854015.4,286047002.5,N
1498854035.3,286046999.8,N
1498854055.1,286047002.0,N
1498854056.0,286047002.0,N
1498854075.8,286047003.9,N
1498854095.7,286047002.3,N
1498854115.5,286047002.4,N
1498854135.3,286047003.9,N
1498854155.2,286047001.6,N
1498854175.9,286047002.0,N
1498854195.7,286047002.6,N
1498854215.6,286047002.1,N
1498854235.4,286047000.3,N
1498854255.2,286047000.0,N
1498854275.1,286047000.4,N
1498854276.0,286047000.4,N
1498854295.8,286046999.8,N
1498854315.6,286047002.6,N
1498854335.5,286046999.8,N
1498854355.3,286047002.2,N
1498854375.1,286047002.3,N
1498854395.9,286047004.4,N
1498854415.7,286047002.0,N
1498854435.5,286047004.0,N
1498854455.4,286047004.3,N
1498854475.2,286047003.6,N
1498854495.0,286047002.9,N
1498854495.9,286047002.9,N
1498854515.8,286047003.8,N
1498854535.6,286047002.5,N
1498854555.4,286047002.7,N
1498854575.3,286047002.4,N
1498854595.1,286046999.7,N
1498854596.0,286046999.7,N
1498854615.8,286047002.2,N
1498854635.7,286047002.3,N
1498854655.5,286047002.7,N
1498854675.3,286047001.3,N
1498854695.2,286047001.8,N
1498854715.9,286047004.0,N
1498854735.7,286047001.6,N
1498854755.6,286047002.4,N
1498854775.4,286047001.4,N
1498854795.2,286047001.5,N
1498854815.1,286047002.4,N
1498854816.0,286047002.4,N
1498854835.8,286047001.6,N
1498854855.6,286047002.2,N
1498854875.5,286047002.1,N
1498854895.3,286047003.9,N
1498854915.1,286047003.1,N
1498854935.9,286047003.4,N
1498854955.7,286047004.0,N
1498854975.5,286047004.2,N
1498854995.4,286047003.6,N
1498855015.2,286047002.0,N
1498855035.0,286047001.4,N
1498855035.9,286047001.4,N
1498855055.8,286047001.9,N
1498855075.6,286047001.9,N
1498855095.4,286047002.2,N
1498855115.3,286047004.3,N
1498855135.1,286047003.7,N
1498855136.0,286047003.7,N
1498855155.8,286047003.0,N
1498855175.7,286047005.5,N
1498855195.5,286047003.9,N
1498855215.3,286047003.0,N
1498855235.2,286047003.6,N
1498855255.9,286047005.9,N
1498855275.7,286047003.4,N
1498855295.6,286047003.5,N
1498855315.4,286047004.0,N
1498855335.2,286047002.1,N
1498855355.1,286047001.6,N
1498855356.0,286047001.6,N
1498855375.8,286047004.0,N
1498855395.6,286047001.8,N
1498855415.5,286047003.9,N
1498855435.3,286047004.0,N
1498855455.1,286047004.3,N
1498855475.9,286047001.3,N
1498855495.7,286047005.3,N
1498855515.5,286047003.5,N
1498855535.4,286047003.3,N
1498855555.2,286047003.8,N
1498855575.0,286047003.3,N
1498855575.9,286047003.3,N
1498855595.8,286047003.0,N
1498855615.6,286047001.3,N
1498855635.4,286047004.4,N
1498855655.3,286047002.0,N
1498855675.1,286047001.9,N
1498855676.0,286047001.9,N
1498855695.8,286047001.7,N
1498855715.7,286047001.3,N
1498855735.5,286047005.5,N
1498855755.3,286047002.9,N
1498855775.2,286047005.2,N
1498855795.9,286047003.3,N
1498855815.7,286047004.2,N
1498855835.6,286047002.3,N
1498855855.4,286047002.6,N
1498855875.2,286047003.9,N
1498855895.1,286047003.6,N
1498855896.0,286047003.6,N
1498855915.8,286047003.4,N
1498855935.6,286047003.8,N
1498855955.5,286047001.3,N
1498855975.3,286047001.7,N
1498855995.1,286047004.0,N
1498856015.9,286047003.3,N
1498856035.7,286047005.3,N
1498856055.5,286047002.9,N
1498856075.4,286047005.5,N
1498856095.2,286047005.8,N
1498856115.0,286047005.1,N
1498856115.9,286047005.1,N
1498856135.8,286047004.5,N
1498856155.6,286047003.3,N
1498856175.4,286047003.9,N
1498856195.3,286047003.4,N
1498856215.1,286047001.3,N
1498856235.8,286047004.1,N
1498856255.7,286047004.1,N
1498856275.5,286047005.2,N
1498856295.3,286047005.7,N
1498856315.2,286047004.1,N
1498856335.9,286047005.6,N
1498856355.7,286047005.5,N
1498856375.6,286047005.4,N
1498856395.4,286047005.8,N
